Location: Buchberg
(46.9333°N, 15.8500°E)
Time: 19:57:53
(UTC+00:00)

Cosmos 1459 Rocket - Pass Details

Date: 14 July 2020
Orbit: 938 x 999 km, 83.0° (Epoch: 05 August)

Event Time Altitude Azimuth Distance (km) Brightness Sun altitude
Exits shadow 00:52:48 27° 211° (SSW) 1,739 4.7 -17.1°
Maximum altitude 00:56:09 60° 282° (WNW) 1,081 4.1 -16.8°
Drops below altitude 10° 01:02:16 10° 3° (N) 2,707 7.3 -16.3°
Sets 01:04:51 0° 7° (N) 3,667 8.3 -16.1°
